SONATE-2

Last updated on Mon Sep 21 2026 00:03:14 GMT+0000 (Coordinated Universal Time)

1 59112U 24043Q 26263.18449285 .00045310 00000+0 43676-3 0 9992 2 59112 97.5624 60.0165 0005401 207.1016 152.9962 15.66376204142728
UTC large
Height (km)
Speed (km/s)
/
Latitude / Longitude
Inclination (degrees)
Orbital Period (minutes)
Azimuth
Elevation
Range (km)
Doppler Factor

Next 0 passes for location: London (51.5072 / 0.1276)

No passes found over London.
SONATE-2